Regional Weather Roundup
Issued by NWS Little Rock, AR

Home | Current Version | Previous Version | Graphics & Text | Print | Product List | Glossary Off
Versions: 1 2 3 4 5 6 7 8 9 10 11 12 13 14 15 16 17 18 19 20 21 22 23 24 25 26 27 28 29 30 31 32 33 34 35 36 37 38 39 40 41 42 43 44 45 46 47 48 49 50

000
ASUS44 KLZK 290305
RWRLZK

WEATHER ROUNDUP FOR ARKANSAS
NATIONAL WEATHER SERVICE LITTLE ROCK AR
1000 PM CDT SUN MAY 28 2017

NOTE: "FAIR" INDICATES FEW OR NO CLOUDS BELOW 12,000 FEET WITH NO
SIGNIFICANT WEATHER AND/OR OBSTRUCTIONS TO VISIBILITY.

ARZ001-003-010-029-290400-
NORTHWEST ARKANSAS

CITY           SKY/WX    TMP DP  RH WIND       PRES   REMARKS
FAYETTEVILLE   CLEAR     61  60  97 CALM      29.99F
FORT SMITH     CLEAR     74  57  55 N3        29.96R
HARRISON       CLEAR     62  58  86 W5        29.99S
BENTONVILLE    PTCLDY    68  55  64 CALM      30.00S
ROGERS         PTCLDY    67  57  70 S3        30.00F
SILOAM SPGS    CLEAR     64  55  72 CALM      29.98F
HIGHFILL       PTCLDY    65  59  81 SW3       29.99F
$$

ARZ004-005-016-290400-
NORTH CENTRAL ARKANSAS

CITY           SKY/WX    TMP DP  RH WIND       PRES   REMARKS
BATESVILLE     CLOUDY    70  61  73 CALM      29.95R
FLIPPIN        CLOUDY    66  55  68 CALM      29.94S
MTN HOME       PTCLDY    63  58  83 CALM      29.96S
$$

ARZ040-041-290400-
WEST CENTRAL ARKANSAS

CITY           SKY/WX    TMP DP  RH WIND       PRES   REMARKS
MENA           CLOUDY    68  68 100 CALM      29.98R
MOUNT IDA      CLOUDY    70  70 100 CALM      29.94R FOG
$$

ARZ009-017-025-026-028-290400-
NORTHEAST ARKANSAS

CITY           SKY/WX    TMP DP  RH WIND       PRES   REMARKS
JONESBORO      MOCLDY    71  65  81 N3        29.92R
NEWPORT        MOCLDY    71  67  87 NW6       29.93R
WALNUT RIDGE   CLOUDY    72  63  73 NW5       29.93R
BLYTHEVILLE    CLOUDY    73  69  87 CALM      29.92S
$$

ARZ022-023-033-042-044-290400-
CENTRAL ARKANSAS

CITY           SKY/WX    TMP DP  RH WIND       PRES   REMARKS
LITTLE ROCK    CLOUDY    74  71  91 NW5       29.93R
N LITTLE ROCK    N/A     74  69  83 CALM      29.93R
JACKSONVILLE   CLOUDY    74  73  99 CALM      29.93R
CONWAY           N/A     73  70  88 CALM      29.93R
SEARCY         CLOUDY    74  70  87 N3        29.96R
HOT SPRINGS    CLOUDY    73  70  90 CALM      29.94R
RUSSELLVILLE   CLOUDY    69  64  84 CALM      29.95R
CLINTON        FAIR      66  64  94 CALM      29.96R
$$

ARZ036-290400-
EAST ARKANSAS

CITY           SKY/WX    TMP DP  RH WIND       PRES   REMARKS
WEST MEMPHIS   CLOUDY    72  71  97 CALM      29.90F
$$

ARZ050-053-066-070-073-290400-
SOUTHWEST ARKANSAS

CITY           SKY/WX    TMP DP  RH WIND       PRES   REMARKS
ARKADELPHIA    CLOUDY    74  72  93 CALM      29.94R
CAMDEN         CLOUDY    73  68  83 SE6       29.92F
TEXARKANA      CLOUDY    71  71 100 CALM      29.95R
EL DORADO      CLOUDY    72  69  90 CALM      29.93F
DE QUEEN       CLOUDY    70  70 100 CALM      29.94R FOG
$$

ARZ056-057-069-290400-
SOUTHEAST ARKANSAS

CITY           SKY/WX    TMP DP  RH WIND       PRES   REMARKS
PINE BLUFF     CLOUDY    76  71  85 CALM      29.92S
STUTTGART      CLOUDY    75  63  64 CALM      29.93R
MONTICELLO     CLOUDY    74  70  87 E7G18     29.86F

$$





USA.gov is the U.S. government's official web portal to all federal, state and local government web resources and services.